Showing default

INTELSAT 804, 25110

Orbit data source: Space-Track

INTELSAT 804, 25110 is a payload satellite owned by INTELSAT (US) in GEO that was launched on Sun, 21 Dec 1997 UTC via an ARIANE 42L launch vehicle from the French Guiana (FRGUI). Payload-class satellites include a variety of spacecraft equipped with specific instruments for various scientific and technological missions. These include communications satellites like Starlink; space stations such as the ISS; scientific satellites like the Hubble; Earth observation satellites from companies like Planet Labs, Umbra, and HawkEye 360; GPS; miniature CubeSats for education and research; and military/defense satellites.

Loading next visibility...
Identifier
25110, 1997-083A
Orbit
GEO
Last TLE update
9 hours ago
Origin
Manufacturer
LMT/EW
Mission
Non-operational Civil Communications
Bus & Motor
AS7000, 2X LEROS 1B
Mass
3,455 kg wet, 1,601 kg dry
Launch date (UTC)
1997-12-21 (28 years ago)
Launch vehicle
ARIANE 42L
Launch site
French Guiana (FRGUI)
Object type
Payload
Rocket body
Debris
Shape & HBR
Hex Poly + 2 Pan, 21.58 m
Radar Cross Section
42.091 m², Large (>1 m²)

Expand to show TLE details & history

TLE from 9 hours ago
0 INTELSAT 804
1 25110U 97083A   25183.47202640  .00000102  00000-0  00000-0 0  9993
2 25110  12.7930  20.1812 0006812  43.7350 226.7032  1.00197458100824
Epoch: 2025-07-02T11:19Z
TLE epoch observation values (Epoch: 2025-07-02T11:19:43.08Z)
Latitude
-12.81391°
Longitude
-160.10084°
Altitude
35,829.488 km
Speed
3.072 km/s
True Right ascension
19h 22m 19s
True Declination
-12° 48' 05"
Sunlit
Object was in daylight at epoch
Visualization orbit readout
Latitude
9.58618°
Longitude
-22.5456°
Altitude
35,777.594 km
Speed
3.076 km/s
Apparent Right ascension
04h 08m 43s
Apparent Declination
4° 18' 44"
Sunlit
Object is in daylight
Visualization observer readout
Local Sidereal Time
08:15:33
Azimuth
254.374° W
Elevation
24.251°
Doppler factor
1
Orbital elements
Apogee altitude
35,837.175 km
Perigee altitude
35,779.7 km
Semi-major axis
42,186.574 km
Eccentricity
0.00068
Inclination
12.793°
RAAN
20.1812°
Arg. of periapsis
43.735°
True anomaly
Unknown
Mean anomaly
226.7032°
Eccentric anomaly
Unknown
Mean motion
0.25049 °/min
Orbital period
1,437.21 mins
BSTAR
0
Loading historical data...
25110 neighbors
Loading maneuver chart data...
Loading SW <> Apogee altitude chart data...
Loading historical data...
Loading historical data...
Loading historical data...
Loading historical data...
Loading historical data...
Loading historical data...
Loading historical data...
Other satellites on launch #83 in the year 1997 (1997-12-21 UTC)

INTELSAT 804 Visibility forecast

Observer location: undefined°, undefined°

Span
Click to sort rows by Start time (UTC) header in descending order
Start Az.
Max El. time (UTC)
Max El. Az.
Max El.
End time (UTC)
End Az.
711 mins2025-07-02 20:31:30.483Z254.358° W2025-07-02 23:46:30.483Z256.467° W24.539°2025-07-03 08:22:30.483Z239.64° WSW
413 mins2025-07-03 13:38:30.483Z237.911° WSW2025-07-03 20:31:30.483Z254.66° W22.218°2025-07-03 20:31:30.483Z254.66° W
|